Tracking 17782 objects as of 27-July-2016
HD Live streaming from Space Station
objects crossing your sky now

CZ-2D DEB

Track CZ-2D DEB now!
10-day predictions


NORAD ID: 28742
Int'l Code: 2005-024F
Perigee: 522.8 km
Apogee: 690.4 km
Inclination: 97.6 °
Period: 96.7 minutes
Semi major axis: 6977 km
RCS: 0.0146 m2 (small)
Launch date: July 5, 2005
Source: People's Republic of China (PRC)
Launch site: Jiuquan Satellite Launch Center, China (JSC)

Note: This is SATELLITE DEBRIS
Your satellite tracking list
Your tracking list is empty





NASA's NSSDC Master Catalog

Two Line Element Set (TLE):
1 28742U 05024F   16208.41431439  .00002799  00000-0  26230-3 0  9993
2 28742  97.6497  11.0589 0120065 219.9266 139.3076 14.89516157588557
Source of the keplerian elements: AFSPC

N2YO: 882